SWR38P LIMC-LSZH

Flight info

Callsign SWR38P
Flight time 0h 28m
Altitude 26000
Route SRN6LXPEPAG2Q/35R PEPAG DCT CANNE Z651 KELIP
Aircraft A321/M-SDE3FGHIRWY/LB1

Departure

Time 2026-05-05 21:04
Airport Milan Malpensa International Airport (LIMC)

Arrival

Time 2026-05-05 21:32
Airport Zürich Airport (LSZH)
Time Latitude Longitude Altitude Speed Heading
2026-05-05 19:56 45.62538 8.71608 734 ft 0 kts 169°
2026-05-05 20:30 45.62542 8.71606 734 ft 2 kts 172°
2026-05-05 20:31 45.62557 8.71603 734 ft 1 kts 169°
2026-05-05 20:31 45.62566 8.71601 734 ft 2 kts 165°
2026-05-05 20:31 45.62580 8.71592 734 ft 2 kts 147°
2026-05-05 20:31 45.62592 8.71578 734 ft 2 kts 132°
2026-05-05 20:32 45.62601 8.71561 734 ft 2 kts 117°
2026-05-05 20:32 45.62606 8.71541 733 ft 2 kts 102°
2026-05-05 20:32 45.62608 8.71519 733 ft 2 kts 87°
2026-05-05 20:32 45.62607 8.71508 733 ft 1 kts 79°
2026-05-05 20:33 45.62606 8.71501 733 ft 0 kts 78°
2026-05-05 20:35 45.62606 8.71502 733 ft 0 kts 78°
2026-05-05 20:35 45.62608 8.71513 733 ft 1 kts 78°
2026-05-05 20:35 45.62611 8.71536 733 ft 3 kts 78°
2026-05-05 20:36 45.62618 8.71583 734 ft 5 kts 78°
2026-05-05 20:36 45.62627 8.71646 735 ft 6 kts 78°
2026-05-05 20:36 45.62637 8.71712 735 ft 7 kts 78°
2026-05-05 20:36 45.62648 8.71790 735 ft 8 kts 79°
2026-05-05 20:37 45.62661 8.71888 734 ft 10 kts 79°
2026-05-05 20:37 45.62669 8.72002 733 ft 11 kts 114°
2026-05-05 20:37 45.62591 8.72052 731 ft 13 kts 169°
2026-05-05 20:37 45.62490 8.72079 729 ft 15 kts 170°
2026-05-05 20:38 45.62376 8.72108 728 ft 17 kts 170°
2026-05-05 20:38 45.62254 8.72140 725 ft 19 kts 169°
2026-05-05 20:38 45.62118 8.72177 723 ft 20 kts 169°
2026-05-05 20:38 45.61973 8.72218 718 ft 21 kts 168°
2026-05-05 20:39 45.61828 8.72260 715 ft 21 kts 168°
2026-05-05 20:39 45.61676 8.72302 710 ft 23 kts 169°
2026-05-05 20:39 45.61519 8.72346 707 ft 19 kts 169°
2026-05-05 20:39 45.61411 8.72353 706 ft 14 kts 213°
2026-05-05 20:40 45.61376 8.72232 707 ft 12 kts 243°
2026-05-05 20:40 45.61297 8.72206 706 ft 13 kts 169°
2026-05-05 20:40 45.61192 8.72235 702 ft 17 kts 169°
2026-05-05 20:40 45.61120 8.72253 700 ft 10 kts 171°
2026-05-05 20:41 45.61037 8.72273 698 ft 13 kts 170°
2026-05-05 20:41 45.60932 8.72303 694 ft 16 kts 167°
2026-05-05 20:41 45.60807 8.72341 689 ft 19 kts 168°
2026-05-05 20:41 45.60673 8.72404 686 ft 20 kts 135°
2026-05-05 20:42 45.60632 8.72597 685 ft 20 kts 95°
2026-05-05 20:42 45.60618 8.72801 685 ft 20 kts 96°
2026-05-05 20:42 45.60603 8.73000 685 ft 19 kts 96°
2026-05-05 20:42 45.60596 8.73191 687 ft 18 kts 77°
2026-05-05 20:43 45.60687 8.73304 688 ft 17 kts 23°
2026-05-05 20:43 45.60799 8.73368 690 ft 16 kts 21°
2026-05-05 20:43 45.60909 8.73406 691 ft 16 kts 357°
2026-05-05 20:43 45.61017 8.73378 692 ft 15 kts 348°
2026-05-05 20:44 45.61116 8.73348 692 ft 10 kts 349°
2026-05-05 20:44 45.61153 8.73338 693 ft 0 kts 349°
2026-05-05 20:47 45.61154 8.73338 693 ft 0 kts 349°
2026-05-05 20:47 45.61172 8.73333 693 ft 5 kts 348°
2026-05-05 20:48 45.61225 8.73318 694 ft 9 kts 349°
2026-05-05 20:48 45.61319 8.73293 696 ft 18 kts 350°
2026-05-05 20:48 45.61440 8.73260 698 ft 16 kts 349°
2026-05-05 20:48 45.61547 8.73230 701 ft 14 kts 349°
2026-05-05 20:49 45.61621 8.73304 702 ft 14 kts 68°
2026-05-05 20:49 45.61629 8.73439 701 ft 6 kts 116°
2026-05-05 20:49 45.61623 8.73456 700 ft 3 kts 116°
2026-05-05 20:49 45.61606 8.73506 700 ft 7 kts 117°
2026-05-05 20:50 45.61590 8.73569 699 ft 0 kts 99°
2026-05-05 21:02 45.61589 8.73573 699 ft 3 kts 98°
2026-05-05 21:02 45.61609 8.73703 699 ft 15 kts 44°
2026-05-05 21:02 45.61682 8.73718 700 ft 0 kts 353°
2026-05-05 21:03 45.61800 8.73689 702 ft 51 kts 349°
2026-05-05 21:03 45.62410 8.73520 717 ft 122 kts 349°
2026-05-05 21:03 45.63363 8.73259 1021 ft 148 kts 350°
2026-05-05 21:04 45.64350 8.73073 1753 ft 141 kts 358°
2026-05-05 21:04 45.65295 8.73026 2442 ft 136 kts 358°
2026-05-05 21:04 45.66219 8.72962 2969 ft 134 kts 358°
2026-05-05 21:04 45.67165 8.72897 3319 ft 138 kts 359°
2026-05-05 21:05 45.68123 8.72826 3696 ft 141 kts 358°
2026-05-05 21:05 45.69106 8.72751 4059 ft 146 kts 358°
2026-05-05 21:05 45.70165 8.72668 4361 ft 158 kts 358°
2026-05-05 21:05 45.71319 8.72631 4642 ft 175 kts
2026-05-05 21:06 45.72395 8.73492 4916 ft 190 kts 53°
2026-05-05 21:06 45.72871 8.75285 5249 ft 204 kts 82°
2026-05-05 21:06 45.73143 8.77370 5628 ft 224 kts 80°
2026-05-05 21:06 45.73480 8.79648 6094 ft 242 kts 79°
2026-05-05 21:07 45.73846 8.82078 6575 ft 260 kts 79°
2026-05-05 21:07 45.74237 8.84671 7111 ft 275 kts 79°
2026-05-05 21:07 45.74644 8.87382 7894 ft 281 kts 80°
2026-05-05 21:07 45.75053 8.90109 8688 ft 286 kts 80°
2026-05-05 21:08 45.75470 8.92917 9241 ft 291 kts 80°
2026-05-05 21:08 45.75888 8.95744 9480 ft 292 kts 80°
2026-05-05 21:08 45.76308 8.98583 9732 ft 294 kts 80°
2026-05-05 21:08 45.76733 9.01457 9975 ft 296 kts 80°
2026-05-05 21:09 45.77159 9.04361 10217 ft 311 kts 80°
2026-05-05 21:09 45.77633 9.07489 10487 ft 334 kts 77°
2026-05-05 21:09 45.78689 9.10560 10719 ft 358 kts 52°
2026-05-05 21:09 45.80681 9.12772 11030 ft 372 kts 24°
2026-05-05 21:10 45.83198 9.13509 11689 ft 372 kts 357°
2026-05-05 21:10 45.85673 9.12678 12391 ft 369 kts 335°
2026-05-05 21:10 45.88001 9.11178 12836 ft 372 kts 334°
2026-05-05 21:10 45.90441 9.09880 12981 ft 374 kts 339°
2026-05-05 21:11 45.92936 9.08868 12990 ft 375 kts 343°
2026-05-05 21:11 45.95501 9.07995 13114 ft 382 kts 344°
2026-05-05 21:11 45.98027 9.06811 13799 ft 381 kts 334°
2026-05-05 21:11 46.00375 9.05072 14600 ft 378 kts 324°
2026-05-05 21:12 46.02516 9.02970 15250 ft 380 kts 321°
2026-05-05 21:12 46.04676 9.00706 15863 ft 383 kts 320°
2026-05-05 21:12 46.06797 8.98458 16453 ft 387 kts 320°
2026-05-05 21:12 46.08981 8.96156 17040 ft 391 kts 320°
2026-05-05 21:13 46.11187 8.93841 17625 ft 394 kts 320°
2026-05-05 21:13 46.13393 8.91538 18182 ft 397 kts 320°
2026-05-05 21:13 46.15767 8.89419 18688 ft 406 kts 329°
2026-05-05 21:13 46.18439 8.87988 19212 ft 415 kts 341°
2026-05-05 21:14 46.21283 8.87286 19719 ft 422 kts 349°
2026-05-05 21:14 46.24201 8.86843 19963 ft 425 kts 351°
2026-05-05 21:14 46.27160 8.86444 19961 ft 424 kts 352°
2026-05-05 21:14 46.30089 8.86049 19961 ft 424 kts 351°
2026-05-05 21:15 46.33012 8.85637 19967 ft 424 kts 351°
2026-05-05 21:15 46.35936 8.85212 19975 ft 425 kts 351°
2026-05-05 21:15 46.38876 8.84777 19980 ft 424 kts 351°
2026-05-05 21:15 46.41828 8.84336 19982 ft 424 kts 351°
2026-05-05 21:16 46.44756 8.83898 19979 ft 424 kts 351°
2026-05-05 21:16 46.47675 8.83457 19975 ft 423 kts 351°
2026-05-05 21:16 46.50586 8.83017 19971 ft 423 kts 351°
2026-05-05 21:16 46.53505 8.82576 19968 ft 423 kts 351°
2026-05-05 21:17 46.56432 8.82133 19965 ft 423 kts 351°
2026-05-05 21:17 46.59349 8.81690 19966 ft 423 kts 351°
2026-05-05 21:17 46.62260 8.81248 19965 ft 423 kts 351°
2026-05-05 21:17 46.65181 8.80807 19964 ft 422 kts 351°
2026-05-05 21:18 46.68085 8.80367 19964 ft 422 kts 351°
2026-05-05 21:18 46.70995 8.79927 19962 ft 422 kts 352°
2026-05-05 21:18 46.73941 8.79478 19956 ft 422 kts 351°
2026-05-05 21:18 46.76844 8.79035 19954 ft 422 kts 352°
2026-05-05 21:19 46.79742 8.78595 19952 ft 422 kts 351°
2026-05-05 21:19 46.82675 8.78147 19953 ft 422 kts 352°
2026-05-05 21:19 46.85589 8.77702 19952 ft 422 kts 352°
2026-05-05 21:19 46.88497 8.77259 19916 ft 415 kts 352°
2026-05-05 21:20 46.91319 8.76828 19509 ft 409 kts 352°
2026-05-05 21:20 46.94141 8.76394 18725 ft 411 kts 352°
2026-05-05 21:20 46.96956 8.75958 18111 ft 408 kts 352°
2026-05-05 21:20 46.99778 8.75512 17581 ft 403 kts 352°
2026-05-05 21:21 47.02537 8.75074 17019 ft 399 kts 352°
2026-05-05 21:21 47.05286 8.74637 16459 ft 396 kts 352°
2026-05-05 21:21 47.07986 8.74098 15902 ft 392 kts 349°
2026-05-05 21:21 47.10672 8.73418 15363 ft 388 kts 348°
2026-05-05 21:22 47.13309 8.72721 14819 ft 385 kts 348°
2026-05-05 21:22 47.15931 8.72020 14269 ft 382 kts 348°
2026-05-05 21:22 47.18509 8.71334 13734 ft 379 kts 349°
2026-05-05 21:22 47.21093 8.70651 13275 ft 373 kts 348°
2026-05-05 21:23 47.23609 8.69990 13087 ft 360 kts 348°
2026-05-05 21:23 47.25998 8.69222 12894 ft 347 kts 343°
2026-05-05 21:23 47.28259 8.68143 12687 ft 335 kts 338°
2026-05-05 21:23 47.30338 8.66835 12445 ft 319 kts 334°
2026-05-05 21:24 47.32339 8.65672 11988 ft 308 kts 346°
2026-05-05 21:24 47.34459 8.65605 11287 ft 307 kts 11°
2026-05-05 21:24 47.36385 8.66825 10556 ft 304 kts 38°
2026-05-05 21:24 47.37741 8.69105 10041 ft 298 kts 63°
2026-05-05 21:25 47.38705 8.71785 9571 ft 297 kts 58°
2026-05-05 21:25 47.40084 8.74018 9098 ft 294 kts 45°
2026-05-05 21:25 47.41324 8.76330 8599 ft 281 kts 67°
2026-05-05 21:25 47.41732 8.79017 8124 ft 267 kts 95°
2026-05-05 21:26 47.41329 8.81606 7653 ft 254 kts 113°
2026-05-05 21:26 47.40739 8.84015 7168 ft 249 kts 104°
2026-05-05 21:26 47.40805 8.86495 6829 ft 242 kts 72°
2026-05-05 21:26 47.41701 8.88496 6525 ft 233 kts 39°
2026-05-05 21:27 47.43121 8.89439 6254 ft 221 kts
2026-05-05 21:27 47.44596 8.89090 5875 ft 213 kts 328°
2026-05-05 21:27 47.45623 8.87623 5427 ft 206 kts 292°
2026-05-05 21:27 47.45848 8.85623 5096 ft 197 kts 261°
2026-05-05 21:28 47.45596 8.83644 5182 ft 199 kts 255°
2026-05-05 21:28 47.45272 8.81655 4945 ft 199 kts 254°
2026-05-05 21:28 47.44940 8.79680 4595 ft 198 kts 254°
2026-05-05 21:28 47.44620 8.77720 4279 ft 198 kts 256°
2026-05-05 21:29 47.44456 8.75691 3956 ft 199 kts 265°
2026-05-05 21:29 47.44485 8.73666 3654 ft 199 kts 272°
2026-05-05 21:29 47.44624 8.71647 3506 ft 199 kts 275°
2026-05-05 21:29 47.44778 8.69680 3318 ft 184 kts 274°
2026-05-05 21:30 47.44910 8.67876 3021 ft 170 kts 274°
2026-05-05 21:30 47.45024 8.66220 2757 ft 156 kts 274°
2026-05-05 21:30 47.45142 8.64687 2502 ft 147 kts 275°
2026-05-05 21:30 47.45246 8.63198 2355 ft 146 kts 274°
2026-05-05 21:31 47.45340 8.61695 2150 ft 146 kts 273°
2026-05-05 21:31 47.45438 8.60202 1927 ft 146 kts 275°
2026-05-05 21:31 47.45545 8.58726 1712 ft 143 kts 274°
2026-05-05 21:31 47.45641 8.57292 1499 ft 139 kts 274°
2026-05-05 21:32 47.45735 8.55983 1409 ft 97 kts 275°
2026-05-05 21:32 47.45772 8.55436 1400 ft 10 kts 276°
2026-05-05 21:32 47.45771 8.55312 1398 ft 20 kts 244°
2026-05-05 21:32 47.45721 8.55294 1398 ft 14 kts 159°
2026-05-05 21:33 47.45594 8.55360 1399 ft 19 kts 160°
2026-05-05 21:33 47.45473 8.55438 1400 ft 18 kts 153°
2026-05-05 21:33 47.45363 8.55527 1401 ft 17 kts 150°
2026-05-05 21:33 47.45275 8.55629 1403 ft 11 kts 115°
2026-05-05 21:34 47.45287 8.55686 1403 ft 6 kts 18°
2026-05-05 21:34 47.45330 8.55698 1404 ft 5 kts
2026-05-05 21:34 47.45348 8.55701 1404 ft 0 kts